#timestamp,LO_Frequency,Hit,StdDev 
1599678015.2,286047000.6,P
1599678035.0,286046998.1,P
1599678035.9,286046998.1,N
1599678055.8,286047000.4,N
1599678075.6,286047000.7,N
1599678095.4,286046999.0,N
1599678115.3,286046998.4,N
1599678135.1,286046998.6,N
1599678155.9,286047001.1,N
1599678175.7,286046998.6,N
1599678195.5,286047000.4,N
1599678215.4,286046999.1,N
1599678235.2,286046999.1,N
1599678255.0,286046999.5,N
1599678255.9,286046999.5,N
1599678275.8,286046999.3,N
1599678295.6,286046998.7,N
1599678315.5,286046998.9,N
1599678335.3,286046999.3,N
1599678355.1,286046998.9,N
1599678375.9,286046998.1,N
1599678395.7,286047001.2,N
1599678415.5,286046998.2,N
1599678435.4,286047001.2,N
1599678455.2,286046999.7,N
1599678475.1,286047000.5,N
1599678476.0,286047000.5,N
1599678495.8,286046998.6,N
1599678515.6,286046998.1,N
1599678535.5,286046999.3,N
1599678555.3,286046999.6,N
1599678575.1,286047001.2,N
1599678595.9,286046998.7,N
1599678615.7,286046999.0,N
1599678635.6,286046999.5,N
1599678655.4,286046998.1,N
1599678675.2,286046999.0,N
1599678695.1,286046998.3,N
1599678696.0,286046998.3,N
1599678715.8,286046999.2,N
1599678735.6,286046999.2,N
1599678755.5,286046999.6,N
1599678775.3,286046999.1,N
1599678795.2,286047001.2,N
1599678815.9,286047000.7,N
1599678835.7,286046998.5,N
1599678855.6,286047002.5,N
1599678875.4,286047003.5,Y
1599678895.2,286047001.3,P
1599678915.1,286047004.2,P
1599678916.0,286047004.2,N
1599678935.8,286047002.1,N
1599678955.7,286047002.4,N
1599678975.5,286047002.5,N
1599678995.3,286047002.8,N
1599679015.2,286047000.1,N
1599679035.0,286047003.6,N
1599679035.9,286047003.6,N
1599679055.8,286047006.4,Y
1599679075.6,286047007.0,P
1599679095.4,286047005.5,N
1599679115.3,286047004.2,N
1599679135.1,286047001.5,N
1599679155.8,286047000.9,N
1599679175.7,286047002.8,N
1599679195.5,286047000.2,N
1599679215.4,286047000.3,N
1599679235.2,286047001.2,N
1599679255.0,286046998.7,N
1599679255.9,286046998.7,N
1599679275.8,286046998.8,N
1599679295.6,286046999.6,N
1599679315.4,286046998.6,N
1599679335.3,286046999.4,N
1599679355.1,286046999.6,N
1599679375.9,286046998.7,N
1599679395.7,286046999.4,N
1599679415.5,286046999.6,N
1599679435.4,286046997.3,N
1599679455.2,286046999.3,N
1599679475.0,286046999.6,N
1599679475.9,286046999.6,N
1599679495.8,286046996.5,N
1599679515.6,286046996.5,N
1599679535.5,286046996.9,N
1599679555.3,286046996.8,N
1599679575.1,286046997.8,N
1599679595.9,286046997.1,N
1599679615.7,286046997.7,N
1599679635.5,286046997.7,N
1599679655.4,286046997.4,N
1599679675.2,286046997.2,N
1599679695.1,286046994.9,Y
1599679696.0,286046994.9,P
1599679715.8,286046996.7,N
1599679735.6,286046997.3,N
1599679755.5,286046997.0,N
1599679775.3,286046996.6,N
1599679795.1,286046997.0,N
1599679815.9,286046997.4,N
1599679835.7,286046997.2,N
1599679855.6,286046999.0,N
1599679875.4,286046997.0,N
1599679895.2,286046996.5,Y
1599679915.1,286047000.6,P
1599679916.0,286047000.6,N
1599679935.8,286047002.8,N
1599679955.6,286046999.7,N
1599679975.5,286046999.7,N
1599679995.3,286047002.8,N
1599680015.2,286047000.9,N
1599680035.9,286047002.4,N
1599680055.7,286047002.7,N
1599680075.6,286047002.1,N
1599680095.4,286047001.6,N
1599680115.2,286047001.3,N
1599680135.1,286047000.0,N
1599680136.0,286047000.0,N
1599680155.8,286046999.8,N
1599680175.7,286046999.9,N
1599680195.5,286046999.7,N
1599680215.3,286047000.0,N
1599680235.2,286047002.4,N
1599680255.0,286046999.9,N
1599680255.9,286046999.9,N
1599680275.7,286047000.9,N
1599680295.6,286047000.2,N
1599680315.4,286047001.0,N
1599680335.3,286047000.3,N
1599680355.1,286047001.0,N
1599680356.0,286047001.0,N
1599680375.8,286046998.5,N
1599680395.7,286046998.9,N
1599680415.5,286046998.3,N
1599680435.3,286046998.6,N
1599680455.2,286046998.6,N
1599680475.0,286047000.5,N
1599680475.9,286047000.5,N
1599680495.8,286047000.8,N
1599680515.6,286047001.0,N
1599680535.4,286047000.7,N
1599680555.3,286046998.3,N
1599680575.1,286046998.8,N
1599680595.8,286046996.5,Y
1599680615.7,286046998.7,P
1599680635.5,286046998.2,N
1599680655.4,286046998.1,N
1599680675.2,286046998.4,N
1599680695.0,286047001.2,N
1599680695.9,286047001.2,N
1599680715.8,286047000.6,N
1599680735.6,286047011.9,Y
1599680755.4,286046999.7,P
1599680775.3,286047001.6,P
1599680795.1,286047001.0,N
1599680815.9,286047000.7,N
1599680835.7,286047000.1,N
1599680855.5,286046999.9,N
1599680875.4,286047000.9,N
1599680895.2,286046999.7,N
1599680915.0,286047002.7,Y
1599680916.0,286047002.7,P
1599680935.8,286046999.7,N
1599680955.6,286047001.4,N
1599680975.5,286047001.6,N
1599680995.3,286047002.3,N
1599681015.2,286047000.5,N
1599681035.9,286047002.6,N
1599681055.7,286047001.0,N
1599681075.6,286046999.7,N
1599681095.4,286046999.7,N
1599681115.2,286047002.3,N
1599681135.1,286047001.8,N
1599681136.0,286047001.8,N
1599681155.8,286047001.9,N
1599681175.7,286047003.9,Y
1599681195.5,286046999.9,P
1599681215.3,286047000.3,N
1599681235.2,286047002.2,P
1599681255.0,286047000.0,N
1599681255.9,286047000.0,N
1599681275.8,286047000.7,N
1599681295.6,286047000.8,N
1599681315.4,286047000.3,N
1599681335.3,286047000.8,N
1599681355.1,286047001.1,N
1599681375.8,286046998.5,N
1599681395.7,286046999.8,N
1599681415.5,286047002.4,N
1599681435.3,286046999.9,N
1599681455.2,286047001.2,N
1599681475.0,286047002.4,N
1599681475.9,286047002.4,N
1599681495.8,286047002.3,N
1599681515.6,286047002.3,N
1599681535.4,286047001.9,N
1599681555.3,286047002.5,N
1599681575.1,286047002.4,N
1599681595.9,286047002.3,N
